Find Starlink 33604

NORAD ID: 63070 Int'l Des: 2025-035 Owner: SPXS Country: US Constellation: starlink operational
LEOCIRCULAR

Current View

Loading 3D Globe...

About Starlink 33604

Starlink 33604 (NORAD 63070) is a starlink constellation satellite (v2 mini) launched Feb 21, 2025 by SPXS of US. It operates in LEO, CIRCULAR orbit with a mass of 575.00 kg.

About Starlink 33604

Description loading...

Upcoming Passes

Passes for default location (London). Set your location on the main map for personalized predictions.

Altitude History

Loading altitude history...

Two-Line Element Set

1 63070U 25035U 26166.10558608 .00017505 00000-0 64368-3 0 9993
2 63070 42.9953 317.3259 0002683 278.9711 81.0837 15.27600689 74613
Epoch: Jun 15, 2026 • Age: 18 hours

Current Status

Altitude 483.4 km
Velocity 7.63 km/s
Sub-Earth Point 18.58°N, 98.93°W
Launch Date Feb 21, 2025
Age 1.3 years
Type internet

Technical Details

Classification Payload
Mass 575.00 kg
Dry Mass 530.00 kg
Total Mass 575.00 kg
Length 0.30 m
Diameter 4.10 m
Span 29.00 m
Shape Box + pan
Manufacturer SPXS
Bus Type Starlink V2MO
Phase Status In Orbit
Owner/State SPXS/US

Most Searched